Time,Snow Cover Fraction,Confidence
2024-05-18T05:23:00,100.0,97.93
2024-05-18T05:33:00,100.0,95.22
2024-05-18T05:43:00,100.0,98.65
2024-05-18T05:53:00,100.0,98.94
2024-05-18T06:03:00,50.0,98.3
2024-05-18T06:13:00,100.0,98.93
2024-05-18T06:23:00,100.0,99.3
2024-05-18T06:33:00,100.0,99.67
2024-05-18T06:43:00,100.0,99.48
2024-05-18T06:53:00,100.0,99.74
2024-05-18T07:03:00,100.0,99.92
2024-05-18T07:13:00,100.0,99.82
2024-05-18T07:23:00,100.0,99.9
2024-05-18T07:33:00,100.0,99.92
2024-05-18T07:43:00,100.0,99.89
2024-05-18T07:53:00,100.0,99.96
2024-05-18T08:03:00,100.0,99.96
2024-05-18T08:13:00,100.0,99.96
2024-05-18T08:23:00,100.0,99.95
2024-05-18T08:33:00,100.0,99.94
2024-05-18T08:43:00,100.0,99.96
2024-05-18T08:53:00,100.0,99.97
2024-05-18T09:03:00,100.0,99.96
2024-05-18T09:13:00,100.0,99.95
2024-05-18T09:23:00,100.0,99.81
2024-05-18T09:33:00,100.0,99.93
2024-05-18T09:43:00,100.0,99.97
2024-05-18T09:53:00,100.0,99.95
2024-05-18T10:03:00,100.0,97.53
2024-05-18T10:13:00,100.0,96.67
2024-05-18T10:23:00,100.0,98.48
2024-05-18T10:33:00,100.0,98.64
2024-05-18T10:43:00,100.0,98.21
2024-05-18T10:53:00,100.0,97.77
2024-05-18T11:03:00,100.0,98.11
2024-05-18T11:13:00,100.0,98.68
2024-05-18T11:23:00,100.0,98.59
2024-05-18T11:33:00,100.0,98.82
2024-05-18T11:43:00,100.0,98.93
2024-05-18T11:53:00,100.0,99.98
2024-05-18T12:03:00,100.0,99.99
2024-05-18T12:13:00,100.0,99.99
2024-05-18T12:23:00,100.0,99.99
2024-05-18T12:33:00,100.0,99.98
2024-05-18T12:43:00,100.0,99.96
2024-05-18T12:53:00,100.0,99.97
2024-05-18T13:03:00,100.0,99.98
2024-05-18T13:13:00,100.0,99.98
2024-05-18T13:23:00,100.0,99.96
2024-05-18T13:33:00,100.0,99.98
2024-05-18T13:43:00,100.0,99.99
2024-05-18T13:53:00,100.0,99.99
2024-05-18T14:03:00,100.0,99.98
2024-05-18T14:13:00,100.0,99.97
2024-05-18T14:23:00,100.0,99.97
2024-05-18T14:33:00,100.0,99.98
2024-05-18T14:43:00,100.0,99.98
2024-05-18T14:53:00,100.0,99.98
2024-05-18T15:03:00,100.0,99.97
2024-05-18T15:13:00,100.0,99.98
2024-05-18T15:23:00,100.0,99.97
2024-05-18T15:33:00,100.0,99.96
2024-05-18T15:43:00,100.0,99.96
2024-05-18T15:53:00,100.0,99.96
2024-05-18T16:03:00,100.0,99.93
2024-05-18T16:13:00,100.0,99.89
2024-05-18T16:23:00,100.0,99.68
2024-05-18T16:33:00,100.0,97.59
2024-05-18T16:43:00,50.0,98.05
2024-05-18T16:53:00,50.0,99.91
2024-05-18T17:03:00,50.0,98.35
2024-05-18T17:13:00,50.0,97.39
2024-05-18T17:23:00,50.0,99.01
2024-05-18T17:33:00,50.0,97.92
2024-05-18T17:43:00,50.0,87.89
2024-05-18T17:53:00,50.0,84.7
2024-05-18T18:03:00,50.0,75.31
2024-05-18T18:13:00,50.0,73.02
2024-05-18T18:23:00,50.0,86.26
2024-05-18T18:33:00,nan,nan
2024-05-18T18:43:00,nan,nan
2024-05-19T05:23:00,100.0,74.72
2024-05-19T05:33:00,100.0,85.46
2024-05-19T05:43:00,100.0,89.8
2024-05-19T05:53:00,50.0,99.19
2024-05-19T06:03:00,50.0,97.08
2024-05-19T06:13:00,100.0,95.36
2024-05-19T06:23:00,100.0,96.31
2024-05-19T06:33:00,100.0,97.87
2024-05-19T06:43:00,100.0,99.15
2024-05-19T06:53:00,100.0,98.99
2024-05-19T07:03:00,100.0,99.49
2024-05-19T07:13:00,100.0,99.68
2024-05-19T07:23:00,100.0,98.92
2024-05-19T07:33:00,100.0,95.79
2024-05-19T07:43:00,100.0,99.75
2024-05-19T07:53:00,100.0,99.71
2024-05-19T08:03:00,100.0,99.82
2024-05-19T08:13:00,100.0,99.91
2024-05-19T08:23:00,100.0,99.9
2024-05-19T08:33:00,100.0,99.92
2024-05-19T08:43:00,100.0,98.58
2024-05-19T08:53:00,50.0,93.69
2024-05-19T09:03:00,nan,nan
2024-05-19T09:13:00,nan,nan
2024-05-19T09:23:00,50.0,96.86
2024-05-19T09:33:00,nan,nan
2024-05-19T09:43:00,nan,nan
2024-05-19T09:53:00,100.0,68.63
2024-05-19T10:03:00,nan,nan
2024-05-19T10:13:00,50.0,98.39
2024-05-19T10:23:00,50.0,97.81
2024-05-19T10:33:00,50.0,95.89
2024-05-19T10:43:00,100.0,98.72
2024-05-19T10:53:00,100.0,70.16
2024-05-19T11:03:00,100.0,92.0
2024-05-19T11:13:00,100.0,93.78
2024-05-19T11:23:00,100.0,99.91
2024-05-19T11:33:00,100.0,96.6
2024-05-19T11:43:00,100.0,82.24
2024-05-19T11:53:00,100.0,99.91
2024-05-19T12:03:00,100.0,99.95
2024-05-19T12:13:00,50.0,94.65
2024-05-19T12:23:00,50.0,59.84
2024-05-19T12:33:00,50.0,59.43
2024-05-19T12:43:00,100.0,99.82
2024-05-19T12:53:00,100.0,98.41
2024-05-19T13:03:00,100.0,99.94
2024-05-19T13:13:00,100.0,99.85
2024-05-19T13:23:00,100.0,99.19
2024-05-19T13:33:00,100.0,99.88
2024-05-19T13:43:00,100.0,99.87
2024-05-19T13:53:00,100.0,99.95
2024-05-19T14:03:00,100.0,99.95
2024-05-19T14:13:00,100.0,99.92
2024-05-19T14:23:00,100.0,99.88
2024-05-19T14:33:00,100.0,99.81
2024-05-19T14:43:00,100.0,99.83
2024-05-19T14:53:00,100.0,99.62
2024-05-19T15:03:00,100.0,98.97
2024-05-19T15:13:00,100.0,98.53
2024-05-19T15:23:00,100.0,95.44
2024-05-19T15:33:00,100.0,84.05
2024-05-19T15:43:00,50.0,66.09
2024-05-19T15:53:00,50.0,83.77
2024-05-19T16:03:00,50.0,96.53
2024-05-19T16:13:00,50.0,97.9
2024-05-19T16:23:00,50.0,98.79
2024-05-19T16:33:00,50.0,98.61
2024-05-19T16:43:00,50.0,98.75
2024-05-19T16:53:00,50.0,97.5
2024-05-19T17:03:00,50.0,97.62
2024-05-19T17:13:00,50.0,82.6
2024-05-19T17:23:00,50.0,81.96
2024-05-19T17:33:00,50.0,83.28
2024-05-19T17:43:00,50.0,92.44
2024-05-19T17:53:00,50.0,90.25
2024-05-19T18:03:00,50.0,94.5
2024-05-19T18:13:00,50.0,92.37
2024-05-19T18:23:00,50.0,84.96
2024-05-19T18:33:00,nan,nan
2024-05-19T18:43:00,nan,nan
2024-05-20T05:23:00,50.0,80.03
2024-05-20T05:33:00,100.0,59.95
2024-05-20T05:43:00,100.0,79.59
2024-05-20T05:53:00,100.0,90.78
2024-05-20T06:03:00,100.0,97.54
2024-05-20T06:13:00,100.0,96.85
2024-05-20T06:23:00,100.0,98.29
2024-05-20T06:33:00,100.0,99.49
2024-05-20T06:43:00,100.0,99.59
2024-05-20T06:53:00,100.0,99.83
2024-05-20T07:03:00,100.0,99.89
2024-05-20T07:13:00,100.0,99.89
2024-05-20T07:23:00,100.0,99.94
2024-05-20T07:33:00,100.0,99.95
2024-05-20T07:43:00,100.0,99.94
2024-05-20T07:53:00,100.0,99.93
2024-05-20T08:03:00,100.0,99.94
2024-05-20T08:13:00,100.0,99.96
2024-05-20T08:23:00,100.0,99.96
2024-05-20T08:33:00,100.0,99.96
2024-05-20T08:43:00,100.0,99.96
2024-05-20T08:53:00,100.0,99.95
2024-05-20T09:03:00,100.0,99.96
2024-05-20T09:13:00,100.0,99.97
2024-05-20T09:23:00,100.0,98.38
2024-05-20T09:33:00,100.0,96.17
2024-05-20T09:43:00,100.0,97.08
2024-05-20T09:53:00,100.0,97.08
2024-05-20T10:03:00,100.0,98.0
2024-05-20T10:13:00,100.0,98.08
2024-05-20T10:23:00,100.0,96.89
2024-05-20T10:33:00,100.0,97.29
2024-05-20T10:43:00,100.0,98.35
2024-05-20T10:53:00,100.0,98.73
2024-05-20T11:03:00,100.0,99.04
2024-05-20T11:13:00,100.0,97.36
2024-05-20T11:23:00,100.0,97.29
2024-05-20T11:33:00,100.0,97.46
2024-05-20T11:43:00,100.0,97.26
2024-05-20T11:53:00,100.0,99.13
2024-05-20T12:03:00,100.0,96.31
2024-05-20T12:13:00,100.0,97.27
2024-05-20T12:23:00,100.0,99.74
2024-05-20T12:33:00,100.0,99.9
2024-05-20T12:43:00,100.0,98.75
2024-05-20T12:53:00,100.0,97.95
2024-05-20T13:03:00,100.0,97.37
2024-05-20T13:13:00,100.0,97.5
2024-05-20T13:23:00,100.0,98.98
2024-05-20T13:33:00,100.0,99.95
2024-05-20T13:43:00,100.0,99.94
2024-05-20T13:53:00,100.0,99.93
2024-05-20T14:03:00,100.0,99.96
2024-05-20T14:13:00,100.0,99.96
2024-05-20T14:23:00,100.0,99.96
2024-05-20T14:33:00,100.0,99.93
2024-05-20T14:43:00,100.0,99.92
2024-05-20T14:53:00,100.0,99.95
2024-05-20T15:03:00,100.0,99.96
2024-05-20T15:13:00,100.0,99.95
2024-05-20T15:23:00,100.0,99.92
2024-05-20T15:33:00,100.0,99.91
2024-05-20T15:43:00,100.0,99.95
2024-05-20T15:53:00,100.0,99.94
2024-05-20T16:03:00,100.0,99.87
2024-05-20T16:13:00,100.0,99.87
2024-05-20T16:23:00,100.0,99.59
2024-05-20T16:33:00,100.0,98.49
2024-05-20T16:43:00,100.0,50.46
2024-05-20T16:53:00,50.0,97.26
2024-05-20T17:03:00,50.0,99.29
2024-05-20T17:13:00,50.0,96.89
2024-05-20T17:23:00,50.0,94.78
2024-05-20T17:33:00,50.0,94.03
2024-05-20T17:43:00,nan,nan
2024-05-20T17:53:00,50.0,58.86
2024-05-20T18:03:00,50.0,81.14
2024-05-20T18:13:00,50.0,71.78
2024-05-20T18:23:00,50.0,64.61
2024-05-20T18:33:00,nan,nan
2024-05-20T18:43:00,nan,nan
2024-05-21T05:23:00,50.0,52.44
2024-05-21T05:33:00,100.0,92.29
2024-05-21T05:43:00,100.0,98.19
2024-05-21T05:53:00,100.0,99.11
2024-05-21T06:03:00,100.0,67.38
2024-05-21T06:13:00,100.0,99.67
2024-05-21T06:23:00,100.0,99.76
2024-05-21T06:33:00,100.0,99.85
2024-05-21T06:43:00,100.0,99.89
2024-05-21T06:53:00,100.0,99.91
2024-05-21T07:03:00,100.0,99.93
2024-05-21T07:13:00,100.0,99.91
2024-05-21T07:23:00,100.0,99.87
2024-05-21T07:33:00,100.0,99.94
2024-05-21T07:43:00,100.0,99.94
2024-05-21T07:53:00,100.0,99.93
2024-05-21T08:03:00,100.0,99.95
2024-05-21T08:13:00,100.0,99.95
2024-05-21T08:23:00,100.0,99.95
2024-05-21T08:33:00,100.0,99.96
2024-05-21T08:43:00,100.0,99.95
2024-05-21T08:53:00,100.0,99.96
2024-05-21T09:03:00,100.0,99.97
2024-05-21T09:13:00,100.0,99.97
2024-05-21T09:23:00,100.0,99.87
2024-05-21T09:33:00,100.0,99.96
2024-05-21T09:43:00,100.0,98.12
2024-05-21T09:53:00,100.0,99.68
2024-05-21T10:03:00,100.0,95.08
2024-05-21T10:13:00,100.0,97.87
2024-05-21T10:23:00,100.0,97.21
2024-05-21T10:33:00,100.0,97.15
2024-05-21T10:43:00,100.0,97.19
2024-05-21T10:53:00,100.0,97.65
2024-05-21T11:03:00,100.0,98.19
2024-05-21T11:13:00,100.0,98.04
2024-05-21T11:23:00,100.0,97.63
2024-05-21T11:33:00,100.0,98.29
2024-05-21T11:43:00,100.0,98.12
2024-05-21T11:53:00,100.0,98.55
2024-05-21T12:03:00,100.0,98.77
2024-05-21T12:13:00,100.0,99.52
2024-05-21T12:23:00,100.0,99.47
2024-05-21T12:33:00,100.0,99.52
2024-05-21T12:43:00,100.0,99.65
2024-05-21T12:53:00,100.0,99.89
2024-05-21T13:03:00,100.0,99.89
2024-05-21T13:13:00,100.0,99.88
2024-05-21T13:23:00,100.0,99.95
2024-05-21T13:33:00,100.0,99.97
2024-05-21T13:43:00,100.0,99.98
2024-05-21T13:53:00,100.0,99.98
2024-05-21T14:03:00,100.0,99.98
2024-05-21T14:13:00,100.0,99.98
2024-05-21T14:23:00,100.0,99.98
2024-05-21T14:33:00,100.0,99.98
2024-05-21T14:43:00,100.0,99.98
2024-05-21T14:53:00,100.0,99.97
2024-05-21T15:03:00,100.0,99.97
2024-05-21T15:13:00,100.0,99.98
2024-05-21T15:23:00,100.0,99.97
2024-05-21T15:33:00,100.0,99.95
2024-05-21T15:43:00,100.0,99.95
2024-05-21T15:53:00,100.0,99.96
2024-05-21T16:03:00,100.0,99.96
2024-05-21T16:13:00,100.0,99.92
2024-05-21T16:23:00,100.0,99.61
2024-05-21T16:33:00,100.0,94.86
2024-05-21T16:43:00,50.0,68.35
2024-05-21T16:53:00,50.0,99.09
2024-05-21T17:03:00,50.0,99.26
2024-05-21T17:13:00,50.0,93.46
2024-05-21T17:23:00,50.0,90.65
2024-05-21T17:33:00,nan,nan
2024-05-21T17:43:00,50.0,88.78
2024-05-21T17:53:00,50.0,82.62
2024-05-21T18:03:00,50.0,90.07
2024-05-21T18:13:00,50.0,64.93
2024-05-21T18:23:00,nan,nan
2024-05-21T18:33:00,nan,nan
2024-05-21T18:43:00,nan,nan
2024-05-22T05:23:00,50.0,56.42
2024-05-22T05:33:00,50.0,57.84
2024-05-22T05:43:00,50.0,61.33
2024-05-22T05:53:00,50.0,50.19
2024-05-22T06:03:00,50.0,52.14
2024-05-22T06:13:00,50.0,54.84
2024-05-22T06:23:00,50.0,60.46
2024-05-22T06:33:00,50.0,57.47
2024-05-22T06:43:00,nan,nan
2024-05-22T06:53:00,nan,nan
2024-05-22T07:03:00,nan,nan
2024-05-22T07:13:00,50.0,94.55
2024-05-22T07:23:00,nan,nan
2024-05-22T07:33:00,50.0,94.03
2024-05-22T07:43:00,nan,nan
2024-05-22T07:53:00,50.0,79.78
2024-05-22T08:03:00,100.0,99.94
2024-05-22T08:13:00,100.0,99.94
2024-05-22T08:23:00,100.0,99.95
2024-05-22T08:33:00,100.0,99.96
2024-05-22T08:43:00,100.0,99.97
2024-05-22T08:53:00,100.0,99.96
2024-05-22T09:03:00,100.0,99.96
2024-05-22T09:13:00,100.0,99.96
2024-05-22T09:23:00,100.0,99.98
2024-05-22T09:33:00,100.0,99.91
2024-05-22T09:43:00,100.0,99.78
2024-05-22T09:53:00,100.0,99.88
2024-05-22T10:03:00,100.0,98.27
2024-05-22T10:13:00,100.0,98.09
2024-05-22T10:23:00,100.0,98.51
2024-05-22T10:33:00,100.0,98.19
2024-05-22T10:43:00,100.0,97.1
2024-05-22T10:53:00,100.0,97.37
2024-05-22T11:03:00,100.0,97.35
2024-05-22T11:13:00,100.0,98.89
2024-05-22T11:23:00,100.0,98.42
2024-05-22T11:33:00,100.0,98.01
2024-05-22T11:43:00,100.0,98.23
2024-05-22T11:53:00,100.0,98.83
2024-05-22T12:03:00,100.0,98.64
2024-05-22T12:13:00,100.0,98.44
2024-05-22T12:23:00,100.0,98.72
2024-05-22T12:33:00,100.0,99.84
2024-05-22T12:43:00,100.0,99.99
2024-05-22T12:53:00,100.0,99.99
2024-05-22T13:03:00,100.0,99.66
2024-05-22T13:13:00,100.0,99.98
2024-05-22T13:23:00,100.0,99.43
2024-05-22T13:33:00,100.0,99.99
2024-05-22T13:43:00,100.0,99.98
2024-05-22T13:53:00,100.0,99.98
2024-05-22T14:03:00,100.0,99.98
2024-05-22T14:13:00,100.0,99.97
2024-05-22T14:23:00,100.0,99.98
2024-05-22T14:33:00,100.0,99.98
2024-05-22T14:43:00,100.0,99.98
2024-05-22T14:53:00,100.0,99.97
2024-05-22T15:03:00,100.0,99.97
2024-05-22T15:13:00,100.0,99.98
2024-05-22T15:23:00,100.0,99.96
2024-05-22T15:33:00,100.0,99.93
2024-05-22T15:43:00,100.0,99.95
2024-05-22T15:53:00,100.0,99.94
2024-05-22T16:03:00,100.0,99.9
2024-05-22T16:13:00,100.0,99.7
2024-05-22T16:23:00,100.0,98.56
2024-05-22T16:33:00,100.0,84.89
2024-05-22T16:43:00,50.0,99.87
2024-05-22T16:53:00,50.0,98.39
2024-05-22T17:03:00,50.0,99.08
2024-05-22T17:13:00,50.0,95.45
2024-05-22T17:23:00,50.0,85.38
2024-05-22T17:33:00,50.0,92.5
2024-05-22T17:43:00,50.0,82.94
2024-05-22T17:53:00,50.0,81.1
2024-05-22T18:03:00,50.0,93.21
2024-05-22T18:13:00,50.0,93.17
2024-05-22T18:23:00,50.0,88.0
2024-05-22T18:33:00,nan,nan
2024-05-22T18:43:00,nan,nan
2024-05-23T05:23:00,0.0,55.06
2024-05-23T05:33:00,50.0,54.25
2024-05-23T05:43:00,nan,nan
2024-05-23T05:53:00,nan,nan
2024-05-23T06:03:00,nan,nan
2024-05-23T06:13:00,50.0,58.99
2024-05-23T06:23:00,nan,nan
2024-05-23T06:33:00,50.0,96.08
2024-05-23T06:43:00,50.0,96.35
2024-05-23T06:53:00,50.0,93.05
2024-05-23T07:03:00,100.0,85.5
2024-05-23T07:13:00,100.0,98.94
2024-05-23T07:23:00,100.0,99.81
2024-05-23T07:33:00,100.0,99.86
2024-05-23T07:43:00,100.0,99.86
2024-05-23T07:53:00,100.0,99.93
2024-05-23T08:03:00,100.0,99.92
2024-05-23T08:13:00,100.0,99.93
2024-05-23T08:23:00,100.0,99.93
2024-05-23T08:33:00,100.0,99.93
2024-05-23T08:43:00,100.0,99.95
2024-05-23T08:53:00,100.0,99.95
2024-05-23T09:03:00,100.0,99.95
2024-05-23T09:13:00,100.0,99.95
2024-05-23T09:23:00,100.0,99.76
2024-05-23T09:33:00,100.0,99.96
2024-05-23T09:43:00,100.0,99.88
2024-05-23T09:53:00,100.0,99.96
2024-05-23T10:03:00,100.0,99.71
2024-05-23T10:13:00,100.0,99.96
2024-05-23T10:23:00,100.0,99.97
2024-05-23T10:33:00,100.0,99.97
2024-05-23T10:43:00,100.0,99.98
2024-05-23T10:53:00,100.0,99.97
2024-05-23T11:03:00,100.0,99.97
2024-05-23T11:13:00,100.0,99.97
2024-05-23T11:23:00,100.0,99.9
2024-05-23T11:33:00,100.0,99.61
2024-05-23T11:43:00,100.0,99.97
2024-05-23T11:53:00,100.0,99.97
2024-05-23T12:03:00,100.0,99.98
2024-05-23T12:13:00,100.0,99.69
2024-05-23T12:23:00,100.0,99.43
2024-05-23T12:33:00,100.0,99.98
2024-05-23T12:43:00,100.0,99.98
2024-05-23T12:53:00,100.0,99.98
2024-05-23T13:03:00,100.0,99.53
2024-05-23T13:13:00,100.0,99.88
2024-05-23T13:23:00,100.0,99.88
2024-05-23T13:33:00,100.0,99.98
2024-05-23T13:43:00,100.0,99.98
2024-05-23T13:53:00,100.0,99.99
2024-05-23T14:03:00,100.0,99.98
2024-05-23T14:13:00,100.0,99.97
2024-05-23T14:23:00,100.0,99.97
2024-05-23T14:33:00,100.0,99.96
2024-05-23T14:43:00,100.0,99.97
2024-05-23T14:53:00,100.0,99.96
2024-05-23T15:03:00,100.0,99.95
2024-05-23T15:13:00,100.0,99.94
2024-05-23T15:23:00,100.0,99.92
2024-05-23T15:33:00,100.0,99.8
2024-05-23T15:43:00,100.0,99.77
2024-05-23T15:53:00,100.0,99.11
2024-05-23T16:03:00,100.0,88.16
2024-05-23T16:13:00,50.0,86.61
2024-05-23T16:23:00,50.0,99.29
2024-05-23T16:33:00,50.0,98.77
2024-05-23T16:43:00,50.0,96.88
2024-05-23T16:53:00,50.0,96.04
2024-05-23T17:03:00,50.0,96.25
2024-05-23T17:13:00,50.0,82.51
2024-05-23T17:23:00,nan,nan
2024-05-23T17:33:00,nan,nan
2024-05-23T17:43:00,50.0,88.44
2024-05-23T17:53:00,50.0,73.3
2024-05-23T18:03:00,50.0,90.31
2024-05-23T18:13:00,50.0,91.07
2024-05-23T18:23:00,50.0,81.82
2024-05-23T18:33:00,nan,nan
2024-05-23T18:43:00,nan,nan
2024-05-24T05:23:00,100.0,99.34
2024-05-24T05:33:00,100.0,99.53
2024-05-24T05:43:00,100.0,99.4
2024-05-24T05:53:00,100.0,99.62
2024-05-24T06:03:00,50.0,73.39
2024-05-24T06:13:00,100.0,99.11
2024-05-24T06:23:00,100.0,99.48
2024-05-24T06:33:00,100.0,99.82
2024-05-24T06:43:00,100.0,99.8
2024-05-24T06:53:00,100.0,99.84
2024-05-24T07:03:00,100.0,99.86
2024-05-24T07:13:00,100.0,99.91
2024-05-24T07:23:00,100.0,99.92
2024-05-24T07:33:00,100.0,99.93
2024-05-24T07:43:00,100.0,99.92
2024-05-24T07:53:00,100.0,99.93
2024-05-24T08:03:00,100.0,99.95
2024-05-24T08:13:00,100.0,99.95
2024-05-24T08:23:00,100.0,99.96
2024-05-24T08:33:00,100.0,99.95
2024-05-24T08:43:00,100.0,99.94
2024-05-24T08:53:00,100.0,99.95
2024-05-24T09:03:00,100.0,99.96
2024-05-24T09:13:00,100.0,96.86
2024-05-24T09:23:00,100.0,97.21
2024-05-24T09:33:00,100.0,96.53
2024-05-24T09:43:00,100.0,98.96
2024-05-24T09:53:00,100.0,99.34
2024-05-24T10:03:00,100.0,98.79
2024-05-24T10:13:00,100.0,98.38
2024-05-24T10:23:00,100.0,98.97
2024-05-24T10:33:00,100.0,98.71
2024-05-24T10:43:00,100.0,99.14
2024-05-24T10:53:00,100.0,98.87
2024-05-24T11:03:00,100.0,98.63
2024-05-24T11:13:00,100.0,98.5
2024-05-24T11:23:00,100.0,99.19
2024-05-24T11:33:00,100.0,99.03
2024-05-24T11:43:00,100.0,99.07
2024-05-24T11:53:00,100.0,98.64
2024-05-24T12:03:00,100.0,98.86
2024-05-24T12:13:00,100.0,99.61
2024-05-24T12:23:00,100.0,99.98
2024-05-24T12:33:00,100.0,99.98
2024-05-24T12:43:00,100.0,99.98
2024-05-24T12:53:00,100.0,99.97
2024-05-24T13:03:00,100.0,99.98
2024-05-24T13:13:00,100.0,99.97
2024-05-24T13:23:00,100.0,99.98
2024-05-24T13:33:00,100.0,99.98
2024-05-24T13:43:00,100.0,99.98
2024-05-24T13:53:00,100.0,99.98
2024-05-24T14:03:00,100.0,99.98
2024-05-24T14:13:00,100.0,99.98
2024-05-24T14:23:00,100.0,99.97
2024-05-24T14:33:00,100.0,99.96
2024-05-24T14:43:00,100.0,99.97
2024-05-24T14:53:00,100.0,99.96
2024-05-24T15:03:00,100.0,99.95
2024-05-24T15:13:00,100.0,99.91
2024-05-24T15:23:00,100.0,99.61
2024-05-24T15:33:00,100.0,97.6
2024-05-24T15:43:00,100.0,81.02
2024-05-24T15:53:00,50.0,89.59
2024-05-24T16:03:00,50.0,97.56
2024-05-24T16:13:00,50.0,98.08
2024-05-24T16:23:00,50.0,98.21
2024-05-24T16:33:00,50.0,96.23
2024-05-24T16:43:00,50.0,96.81
2024-05-24T16:53:00,50.0,80.3
2024-05-24T17:03:00,50.0,54.44
2024-05-24T17:13:00,50.0,72.9
2024-05-24T17:23:00,50.0,75.49
2024-05-24T17:33:00,nan,nan
2024-05-24T17:43:00,50.0,79.35
2024-05-24T17:53:00,nan,nan
2024-05-24T18:03:00,50.0,56.7
2024-05-24T18:13:00,0.0,52.43
2024-05-24T18:23:00,nan,nan
2024-05-24T18:33:00,nan,nan
2024-05-24T18:43:00,nan,nan
2024-05-25T05:23:00,nan,nan
2024-05-25T05:33:00,nan,nan
2024-05-25T05:43:00,nan,nan
2024-05-25T05:53:00,0.0,62.71
2024-05-25T06:03:00,nan,nan
2024-05-25T06:13:00,nan,nan
2024-05-25T06:23:00,nan,nan
2024-05-25T06:33:00,nan,nan
2024-05-25T06:43:00,50.0,62.35
2024-05-25T06:53:00,50.0,59.08
2024-05-25T07:03:00,nan,nan
2024-05-25T07:13:00,nan,nan
2024-05-25T07:23:00,50.0,76.83
2024-05-25T07:33:00,nan,nan
2024-05-25T07:43:00,nan,nan
2024-05-25T07:53:00,nan,nan
2024-05-25T08:03:00,nan,nan
2024-05-25T08:13:00,nan,nan
2024-05-25T08:23:00,nan,nan
2024-05-25T08:33:00,nan,nan
2024-05-25T08:43:00,nan,nan
2024-05-25T08:53:00,nan,nan
2024-05-25T09:03:00,nan,nan
2024-05-25T09:13:00,nan,nan
2024-05-25T09:23:00,nan,nan
2024-05-25T09:33:00,nan,nan
2024-05-25T09:43:00,nan,nan
2024-05-25T09:53:00,nan,nan
2024-05-25T10:03:00,nan,nan
2024-05-25T10:13:00,50.0,80.44
2024-05-25T10:23:00,nan,nan
2024-05-25T10:33:00,nan,nan
2024-05-25T10:43:00,nan,nan
2024-05-25T10:53:00,nan,nan
2024-05-25T11:03:00,nan,nan
2024-05-25T11:13:00,nan,nan
2024-05-25T11:23:00,nan,nan
2024-05-25T11:33:00,nan,nan
2024-05-25T11:43:00,nan,nan
2024-05-25T11:53:00,nan,nan
2024-05-25T12:03:00,nan,nan
2024-05-25T12:13:00,50.0,95.16
2024-05-25T12:23:00,50.0,98.23
2024-05-25T12:33:00,50.0,98.84
2024-05-25T12:43:00,50.0,97.31
2024-05-25T12:53:00,nan,nan
2024-05-25T13:03:00,50.0,95.9
2024-05-25T13:13:00,50.0,95.24
2024-05-25T13:23:00,50.0,95.58
2024-05-25T13:33:00,50.0,95.68
2024-05-25T13:43:00,50.0,88.85
2024-05-25T13:53:00,50.0,54.22
2024-05-25T14:03:00,50.0,63.1
2024-05-25T14:13:00,nan,nan
2024-05-25T14:23:00,50.0,73.9
2024-05-25T14:33:00,nan,nan
2024-05-25T14:43:00,nan,nan
2024-05-25T14:53:00,nan,nan
2024-05-25T15:03:00,nan,nan
2024-05-25T15:13:00,nan,nan
2024-05-25T15:23:00,nan,nan
2024-05-25T15:33:00,nan,nan
2024-05-25T15:43:00,nan,nan
2024-05-25T15:53:00,50.0,51.13
2024-05-25T16:03:00,50.0,61.79
2024-05-25T16:13:00,nan,nan
2024-05-25T16:23:00,50.0,52.76
2024-05-25T16:33:00,50.0,55.82
2024-05-25T16:43:00,50.0,52.86
2024-05-25T16:53:00,50.0,53.44
2024-05-25T17:03:00,50.0,59.91
2024-05-25T17:13:00,50.0,58.16
2024-05-25T17:23:00,50.0,56.29
2024-05-25T17:33:00,50.0,64.94
2024-05-25T17:43:00,nan,nan
2024-05-25T17:53:00,nan,nan
2024-05-25T18:03:00,nan,nan
2024-05-25T18:13:00,nan,nan
2024-05-25T18:23:00,nan,nan
2024-05-25T18:33:00,nan,nan
2024-05-25T18:43:00,nan,nan
2024-05-26T05:23:00,nan,nan
2024-05-26T05:33:00,0.0,52.0
2024-05-26T05:43:00,50.0,59.85
2024-05-26T05:53:00,50.0,58.44
2024-05-26T06:03:00,nan,nan
2024-05-26T06:13:00,nan,nan
2024-05-26T06:23:00,nan,nan
2024-05-26T06:33:00,50.0,59.78
2024-05-26T06:43:00,50.0,71.06
2024-05-26T06:53:00,nan,nan
2024-05-26T07:03:00,nan,nan
2024-05-26T07:13:00,50.0,92.58
2024-05-26T07:23:00,50.0,94.35
2024-05-26T07:33:00,50.0,93.62
2024-05-26T07:43:00,50.0,98.09
2024-05-26T07:53:00,50.0,96.68
2024-05-26T08:03:00,50.0,56.77
2024-05-26T08:13:00,50.0,54.21
2024-05-26T08:23:00,50.0,57.56
2024-05-26T08:33:00,100.0,64.62
2024-05-26T08:43:00,100.0,68.26
2024-05-26T08:53:00,100.0,81.53
2024-05-26T09:03:00,100.0,85.53
2024-05-26T09:13:00,100.0,93.81
2024-05-26T09:23:00,100.0,98.29
2024-05-26T09:33:00,100.0,98.87
2024-05-26T09:43:00,100.0,98.66
2024-05-26T09:53:00,100.0,85.55
2024-05-26T10:03:00,100.0,99.27
2024-05-26T10:13:00,100.0,99.82
2024-05-26T10:23:00,100.0,99.71
2024-05-26T10:33:00,100.0,99.66
2024-05-26T10:43:00,100.0,99.65
2024-05-26T10:53:00,100.0,99.87
2024-05-26T11:03:00,100.0,99.92
2024-05-26T11:13:00,100.0,99.89
2024-05-26T11:23:00,100.0,99.9
2024-05-26T11:33:00,100.0,99.07
2024-05-26T11:43:00,100.0,99.91
2024-05-26T11:53:00,100.0,99.91
2024-05-26T12:03:00,100.0,99.85
2024-05-26T12:13:00,100.0,99.85
2024-05-26T12:23:00,100.0,98.17
2024-05-26T12:33:00,100.0,99.18
2024-05-26T12:43:00,100.0,99.97
2024-05-26T12:53:00,100.0,99.95
2024-05-26T13:03:00,100.0,99.95
2024-05-26T13:13:00,100.0,99.94
2024-05-26T13:23:00,100.0,99.96
2024-05-26T13:33:00,100.0,99.96
2024-05-26T13:43:00,100.0,99.96
2024-05-26T13:53:00,100.0,99.96
2024-05-26T14:03:00,100.0,99.94
2024-05-26T14:13:00,100.0,99.96
2024-05-26T14:23:00,100.0,99.96
2024-05-26T14:33:00,100.0,99.96
2024-05-26T14:43:00,100.0,99.93
2024-05-26T14:53:00,100.0,99.94
2024-05-26T15:03:00,100.0,99.91
2024-05-26T15:13:00,100.0,99.86
2024-05-26T15:23:00,100.0,99.86
2024-05-26T15:33:00,100.0,99.38
2024-05-26T15:43:00,100.0,95.83
2024-05-26T15:53:00,100.0,93.08
2024-05-26T16:03:00,50.0,75.78
2024-05-26T16:13:00,50.0,91.28
2024-05-26T16:23:00,50.0,98.22
2024-05-26T16:33:00,50.0,98.44
2024-05-26T16:43:00,50.0,97.22
2024-05-26T16:53:00,50.0,96.25
2024-05-26T17:03:00,50.0,94.93
2024-05-26T17:13:00,50.0,78.18
2024-05-26T17:23:00,nan,nan
2024-05-26T17:33:00,50.0,85.26
2024-05-26T17:43:00,50.0,91.11
2024-05-26T17:53:00,50.0,83.54
2024-05-26T18:03:00,50.0,93.6
2024-05-26T18:13:00,50.0,68.33
2024-05-26T18:23:00,50.0,88.03
2024-05-26T18:33:00,nan,nan
2024-05-26T18:43:00,nan,nan
2024-05-27T05:23:00,nan,nan
2024-05-27T05:33:00,nan,nan
2024-05-27T05:43:00,nan,nan
2024-05-27T05:53:00,0.0,56.7
2024-05-27T06:03:00,nan,nan
2024-05-27T06:13:00,50.0,75.26
2024-05-27T06:23:00,50.0,84.59
2024-05-27T06:33:00,50.0,78.22
2024-05-27T06:43:00,nan,nan
2024-05-27T06:53:00,nan,nan
2024-05-27T07:03:00,50.0,72.03
2024-05-27T07:13:00,50.0,86.44
2024-05-27T07:23:00,50.0,82.55
2024-05-27T07:33:00,50.0,97.86
2024-05-27T07:43:00,50.0,86.35
2024-05-27T07:53:00,50.0,70.3
2024-05-27T08:03:00,100.0,59.98
2024-05-27T08:13:00,100.0,81.37
2024-05-27T08:23:00,100.0,81.75
2024-05-27T08:33:00,100.0,91.35
2024-05-27T08:43:00,100.0,84.24
2024-05-27T08:53:00,100.0,90.48
2024-05-27T09:03:00,100.0,95.28
2024-05-27T09:13:00,100.0,96.04
2024-05-27T09:23:00,100.0,95.79
2024-05-27T09:33:00,100.0,98.2
2024-05-27T09:43:00,100.0,98.14
2024-05-27T09:53:00,100.0,96.64
2024-05-27T10:03:00,100.0,96.76
2024-05-27T10:13:00,50.0,71.07
2024-05-27T10:23:00,100.0,73.55
2024-05-27T10:33:00,50.0,97.37
2024-05-27T10:43:00,50.0,96.51
2024-05-27T10:53:00,nan,nan
2024-05-27T11:03:00,50.0,96.36
2024-05-27T11:13:00,50.0,97.35
2024-05-27T11:23:00,nan,nan
2024-05-27T11:33:00,50.0,96.96
2024-05-27T11:43:00,50.0,80.6
2024-05-27T11:53:00,50.0,92.52